BVI2DW EGLL-EBBR

Flight info

Callsign BVI2DW
Flight time 0h 41m
Altitude 23000
Route DET Q70 KOK
Aircraft B789/H-SDE1E2E3FGHIJ2J3J4J5M1RWXY/LB1D1

Departure

Time 2026-05-07 19:15
Airport London Heathrow Airport (EGLL)

Arrival

Time 2026-05-07 19:56
Airport Brussels Airport (EBBR)
Time Latitude Longitude Altitude Speed Heading
2026-05-07 18:51 51.46249 -0.45648 91 ft 0 kts 259°
2026-05-07 19:04 51.46252 -0.45629 94 ft 4 kts 259°
2026-05-07 19:05 51.46256 -0.45589 93 ft 2 kts 259°
2026-05-07 19:05 51.46259 -0.45551 93 ft 4 kts 283°
2026-05-07 19:05 51.46247 -0.45515 93 ft 4 kts 320°
2026-05-07 19:05 51.46229 -0.45495 92 ft 1 kts 326°
2026-05-07 19:06 51.46225 -0.45491 93 ft 0 kts 326°
2026-05-07 19:07 51.46226 -0.45492 92 ft 0 kts 326°
2026-05-07 19:13 51.46477 -0.48714 91 ft 0 kts 90°
2026-05-07 19:14 51.46478 -0.48615 93 ft 31 kts 89°
2026-05-07 19:14 51.46484 -0.47909 92 ft 95 kts 89°
2026-05-07 19:14 51.46473 -0.46536 99 ft 149 kts 91°
2026-05-07 19:15 51.46451 -0.44755 615 ft 157 kts 92°
2026-05-07 19:15 51.46465 -0.42946 1157 ft 171 kts 90°
2026-05-07 19:15 51.46118 -0.41036 1415 ft 191 kts 121°
2026-05-07 19:15 51.45360 -0.39249 1946 ft 200 kts 126°
2026-05-07 19:16 51.44599 -0.37287 2394 ft 213 kts 121°
2026-05-07 19:16 51.43946 -0.35060 2804 ft 232 kts 114°
2026-05-07 19:16 51.43389 -0.32516 3372 ft 247 kts 107°
2026-05-07 19:16 51.42987 -0.29813 4101 ft 254 kts 102°
2026-05-07 19:17 51.42596 -0.27009 4928 ft 260 kts 103°
2026-05-07 19:17 51.42204 -0.24163 5509 ft 268 kts 102°
2026-05-07 19:17 51.41804 -0.21207 6340 ft 269 kts 102°
2026-05-07 19:17 51.41407 -0.18297 7176 ft 271 kts 103°
2026-05-07 19:18 51.40994 -0.15309 7928 ft 276 kts 103°
2026-05-07 19:18 51.40579 -0.12308 8659 ft 281 kts 103°
2026-05-07 19:18 51.40146 -0.09173 9254 ft 293 kts 104°
2026-05-07 19:18 51.39696 -0.05926 9416 ft 309 kts 104°
2026-05-07 19:19 51.39230 -0.02554 9922 ft 308 kts 104°
2026-05-07 19:19 51.38757 0.00837 10043 ft 316 kts 104°
2026-05-07 19:19 51.38285 0.04223 10944 ft 310 kts 104°
2026-05-07 19:19 51.37816 0.07606 11695 ft 314 kts 104°
2026-05-07 19:20 51.37324 0.11111 12053 ft 330 kts 104°
2026-05-07 19:20 51.36809 0.14764 12385 ft 346 kts 104°
2026-05-07 19:20 51.36270 0.18599 12839 ft 357 kts 104°
2026-05-07 19:20 51.35727 0.22467 13509 ft 361 kts 104°
2026-05-07 19:21 51.35166 0.26436 14163 ft 364 kts 104°
2026-05-07 19:21 51.34604 0.30398 14754 ft 368 kts 104°
2026-05-07 19:21 51.34038 0.34376 15152 ft 372 kts 104°
2026-05-07 19:21 51.33458 0.38451 15710 ft 376 kts 104°
2026-05-07 19:22 51.33070 0.41169 16079 ft 379 kts 104°
2026-05-07 19:22 51.32281 0.46669 16820 ft 384 kts 104°
2026-05-07 19:22 51.31882 0.49446 17189 ft 387 kts 104°
2026-05-07 19:22 51.31274 0.53673 17690 ft 393 kts 104°
2026-05-07 19:23 51.30655 0.57984 17955 ft 400 kts 104°
2026-05-07 19:23 51.30255 0.62412 18007 ft 400 kts 95°
2026-05-07 19:23 51.30116 0.66820 18014 ft 400 kts 93°
2026-05-07 19:23 51.30011 0.71272 18006 ft 399 kts 93°
2026-05-07 19:24 51.29855 0.75680 18013 ft 398 kts 95°
2026-05-07 19:24 51.29668 0.80061 18036 ft 397 kts 95°
2026-05-07 19:24 51.29497 0.84491 18125 ft 399 kts 94°
2026-05-07 19:24 51.29345 0.88904 18755 ft 398 kts 94°
2026-05-07 19:25 51.29183 0.93360 19331 ft 399 kts 94°
2026-05-07 19:25 51.29010 0.97753 19817 ft 402 kts 94°
2026-05-07 19:25 51.28832 1.02260 20292 ft 405 kts 94°
2026-05-07 19:25 51.28661 1.06737 20757 ft 409 kts 94°
2026-05-07 19:26 51.28485 1.11291 21205 ft 412 kts 94°
2026-05-07 19:26 51.28302 1.15886 21666 ft 414 kts 94°
2026-05-07 19:26 51.28119 1.20439 22198 ft 414 kts 94°
2026-05-07 19:26 51.27932 1.25059 22703 ft 416 kts 95°
2026-05-07 19:27 51.27742 1.29719 23005 ft 421 kts 95°
2026-05-07 19:27 51.27553 1.34333 23065 ft 420 kts 95°
2026-05-07 19:27 51.27359 1.38985 23069 ft 416 kts 95°
2026-05-07 19:27 51.27167 1.43567 23062 ft 415 kts 95°
2026-05-07 19:28 51.26971 1.48181 23069 ft 415 kts 95°
2026-05-07 19:28 51.26776 1.52734 23056 ft 415 kts 95°
2026-05-07 19:28 51.26577 1.57348 23071 ft 415 kts 95°
2026-05-07 19:28 51.26377 1.61947 23074 ft 415 kts 95°
2026-05-07 19:29 51.26174 1.66544 23058 ft 415 kts 95°
2026-05-07 19:29 51.25971 1.71118 23060 ft 415 kts 95°
2026-05-07 19:29 51.25765 1.75716 23072 ft 415 kts 95°
2026-05-07 19:29 51.25555 1.80381 23071 ft 415 kts 95°
2026-05-07 19:30 51.25350 1.84878 23072 ft 414 kts 95°
2026-05-07 19:30 51.25138 1.89491 23071 ft 414 kts 95°
2026-05-07 19:30 51.24924 1.94096 23073 ft 415 kts 95°
2026-05-07 19:30 51.24712 1.98642 23074 ft 415 kts 95°
2026-05-07 19:31 51.24494 2.03271 23069 ft 415 kts 95°
2026-05-07 19:31 51.24278 2.07842 23070 ft 415 kts 95°
2026-05-07 19:31 51.24058 2.12468 23068 ft 415 kts 95°
2026-05-07 19:31 51.23838 2.17037 23073 ft 414 kts 95°
2026-05-07 19:32 51.23615 2.21622 23073 ft 414 kts 95°
2026-05-07 19:32 51.23401 2.26138 23057 ft 406 kts 95°
2026-05-07 19:32 51.23239 2.30525 23059 ft 387 kts 94°
2026-05-07 19:32 51.23108 2.34733 23047 ft 370 kts 94°
2026-05-07 19:33 51.22979 2.38715 23051 ft 353 kts 94°
2026-05-07 19:33 51.22840 2.42572 23055 ft 339 kts 94°
2026-05-07 19:33 51.22706 2.46264 23046 ft 332 kts 94°
2026-05-07 19:33 51.22576 2.49937 23054 ft 334 kts 94°
2026-05-07 19:34 51.22442 2.53704 23052 ft 338 kts 94°
2026-05-07 19:34 51.22308 2.57422 23055 ft 339 kts 94°
2026-05-07 19:34 51.22171 2.61184 23066 ft 338 kts 94°
2026-05-07 19:34 51.22033 2.64912 23067 ft 338 kts 94°
2026-05-07 19:35 51.21894 2.68669 23067 ft 338 kts 94°
2026-05-07 19:35 51.21753 2.72431 23066 ft 338 kts 94°
2026-05-07 19:35 51.21467 2.76104 23077 ft 336 kts 103°
2026-05-07 19:35 51.20932 2.79751 23082 ft 338 kts 105°
2026-05-07 19:36 51.20337 2.83362 22835 ft 333 kts 107°
2026-05-07 19:36 51.19732 2.86917 22325 ft 335 kts 107°
2026-05-07 19:36 51.19119 2.90486 21938 ft 332 kts 107°
2026-05-07 19:36 51.18505 2.94039 21605 ft 327 kts 107°
2026-05-07 19:37 51.17900 2.97525 21238 ft 325 kts 107°
2026-05-07 19:37 51.17306 3.00949 20861 ft 322 kts 107°
2026-05-07 19:37 51.16707 3.04385 20483 ft 320 kts 107°
2026-05-07 19:37 51.16108 3.07802 19793 ft 328 kts 107°
2026-05-07 19:38 51.15475 3.11394 18886 ft 343 kts 107°
2026-05-07 19:38 51.14811 3.15110 17880 ft 356 kts 107°
2026-05-07 19:38 51.14117 3.18983 16743 ft 369 kts 107°
2026-05-07 19:38 51.13418 3.22974 15699 ft 378 kts 104°
2026-05-07 19:39 51.12951 3.27102 14982 ft 377 kts 99°
2026-05-07 19:39 51.12618 3.31169 14355 ft 373 kts 98°
2026-05-07 19:39 51.12323 3.35257 13695 ft 370 kts 97°
2026-05-07 19:39 51.12045 3.39315 13003 ft 366 kts 97°
2026-05-07 19:40 51.11774 3.43299 12493 ft 359 kts 97°
2026-05-07 19:40 51.11505 3.47216 12175 ft 354 kts 97°
2026-05-07 19:40 51.11236 3.51113 12085 ft 354 kts 97°
2026-05-07 19:40 51.10963 3.55027 12089 ft 358 kts 97°
2026-05-07 19:41 51.10686 3.58979 12083 ft 359 kts 97°
2026-05-07 19:41 51.10410 3.62927 12085 ft 359 kts 97°
2026-05-07 19:41 51.10132 3.66891 12086 ft 360 kts 97°
2026-05-07 19:41 51.09855 3.70840 12080 ft 360 kts 97°
2026-05-07 19:42 51.09579 3.74768 12080 ft 361 kts 97°
2026-05-07 19:42 51.09299 3.78732 12081 ft 361 kts 97°
2026-05-07 19:42 51.09018 3.82700 12083 ft 361 kts 97°
2026-05-07 19:42 51.08736 3.86664 12082 ft 361 kts 97°
2026-05-07 19:43 51.08456 3.90607 12065 ft 355 kts 97°
2026-05-07 19:43 51.08181 3.94467 11611 ft 352 kts 97°
2026-05-07 19:43 51.07899 3.98395 10894 ft 356 kts 97°
2026-05-07 19:43 51.07613 4.02315 10361 ft 354 kts 97°
2026-05-07 19:44 51.07329 4.06178 9875 ft 347 kts 97°
2026-05-07 19:44 51.07050 4.09942 9260 ft 341 kts 97°
2026-05-07 19:44 51.06772 4.13665 8619 ft 336 kts 97°
2026-05-07 19:44 51.06499 4.17319 8207 ft 331 kts 97°
2026-05-07 19:45 51.06232 4.20903 8010 ft 330 kts 97°
2026-05-07 19:45 51.05961 4.24534 8012 ft 333 kts 97°
2026-05-07 19:45 51.05687 4.28208 8004 ft 334 kts 97°
2026-05-07 19:45 51.05418 4.31881 8014 ft 334 kts 96°
2026-05-07 19:46 51.05261 4.35584 8010 ft 335 kts 93°
2026-05-07 19:46 51.05164 4.39280 8165 ft 332 kts 92°
2026-05-07 19:46 51.05080 4.42964 8276 ft 341 kts 92°
2026-05-07 19:46 51.04997 4.46723 8022 ft 340 kts 92°
2026-05-07 19:47 51.04915 4.50467 7592 ft 337 kts 92°
2026-05-07 19:47 51.04886 4.54150 7133 ft 328 kts 86°
2026-05-07 19:47 51.05323 4.57664 6645 ft 319 kts 75°
2026-05-07 19:47 51.05938 4.61001 6213 ft 309 kts 73°
2026-05-07 19:48 51.06578 4.64212 5812 ft 299 kts 72°
2026-05-07 19:48 51.07135 4.67303 5401 ft 287 kts 81°
2026-05-07 19:48 51.07049 4.70305 4918 ft 257 kts 99°
2026-05-07 19:48 51.06729 4.72943 4481 ft 236 kts 102°
2026-05-07 19:49 51.06379 4.75477 4092 ft 236 kts 102°
2026-05-07 19:49 51.06021 4.78018 3703 ft 234 kts 102°
2026-05-07 19:49 51.05665 4.80539 3321 ft 232 kts 102°
2026-05-07 19:49 51.05290 4.83054 2796 ft 234 kts 105°
2026-05-07 19:50 51.04380 4.85105 2244 ft 231 kts 142°
2026-05-07 19:50 51.02878 4.85792 2009 ft 223 kts 176°
2026-05-07 19:50 51.01341 4.85686 2014 ft 224 kts 182°
2026-05-07 19:50 50.99801 4.85542 2005 ft 212 kts 183°
2026-05-07 19:51 50.98480 4.84806 1866 ft 196 kts 216°
2026-05-07 19:51 50.97539 4.83377 1978 ft 185 kts 225°
2026-05-07 19:51 50.96727 4.81750 1979 ft 189 kts 238°
2026-05-07 19:51 50.96228 4.79822 2001 ft 187 kts 250°
2026-05-07 19:52 50.95789 4.77889 2005 ft 189 kts 250°
2026-05-07 19:52 50.95341 4.75927 2013 ft 188 kts 250°
2026-05-07 19:52 50.94894 4.74012 1989 ft 175 kts 250°
2026-05-07 19:52 50.94501 4.72298 1985 ft 162 kts 250°
2026-05-07 19:53 50.94115 4.70608 1997 ft 163 kts 250°
2026-05-07 19:53 50.93721 4.68922 1996 ft 162 kts 250°
2026-05-07 19:53 50.93338 4.67253 1996 ft 162 kts 250°
2026-05-07 19:53 50.92951 4.65565 1981 ft 163 kts 250°
2026-05-07 19:54 50.92553 4.63855 1746 ft 166 kts 250°
2026-05-07 19:54 50.92159 4.62149 1496 ft 162 kts 250°
2026-05-07 19:54 50.91777 4.60481 1297 ft 161 kts 250°
2026-05-07 19:54 50.91396 4.58821 1062 ft 161 kts 250°
2026-05-07 19:55 50.91006 4.57157 836 ft 160 kts 250°
2026-05-07 19:55 50.90627 4.55506 626 ft 158 kts 251°
2026-05-07 19:55 50.90257 4.53890 408 ft 157 kts 251°
2026-05-07 19:55 50.89884 4.52264 213 ft 157 kts 250°
2026-05-07 19:56 50.89526 4.50736 171 ft 132 kts 250°
2026-05-07 19:56 50.89281 4.49672 178 ft 76 kts 250°
2026-05-07 19:56 50.89157 4.49133 175 ft 29 kts 250°
2026-05-07 19:56 50.90546 4.49030 125 ft 0 kts 191°
2026-05-07 19:57 50.90546 4.49029 125 ft 0 kts 191°